Regional Weather Roundup
Issued by NWS Midland/Odessa, TX

Skip options and go directly to product.
Home | Oldest Version | Next Version | Current Version | All | Text Only | Save Text | Print | Product List | Glossary On

Skip product version selection by date and time.   
880
ASUS44 KMAF 260910
RWRMAF
MIDLAND AREA WEATHER ROUNDUP
NATIONAL WEATHER SERVICE MIDLAND TX
400 AM CDT THU MAY 26 2016

...IN SOUTHWEST TEXAS AND SOUTHEAST NEW MEXICO...

CITY           SKY/WX    TMP DP  RH WIND       PRES   REMARKS
ALPINE         MOCLDY    74  44  33 SW17G31   30.06F
ANDREWS        LGT RAIN  72  60  64 W3G32     29.90F
ARTESIA        CLEAR     63  21  20 SW14      29.90F
BIG SPRING     CLOUDY    71  59  64 S9        29.91F
CARLSBAD       CLEAR     64  55  72 W9        29.89S
DRYDEN           N/A     77  66  68 CALM      29.89F
FORT STOCKTON  CLOUDY    72  63  73 VRB3      29.92R
GUAD PASS      NOT AVBL
HOBBS          CLEAR     68  68 100 SE10      29.92F
MARFA          PTCLDY    69  45  41 S9        30.07F
MIDLAND AIRPK  CLOUDY    76  54  45 S9        29.93R
MIDLAND INTL   PTCLDY    76  55  48 S10       29.91S
ODESSA         CLOUDY    76  62  62 S17       29.91F
PECOS          CLEAR     70  53  56 SW6       29.88R
PRESIDIO       FAIR      80  46  29 SE5       29.94F
SEMINOLE       MOCLDY    71  65  82 SE12      29.91F
SNYDER           N/A     73  71  92 S7        29.90F FOG
WINK           CLEAR     76  52  43 MISG      29.86R
$$
...OTHER STATIONS IN TEXAS...

CITY           SKY/WX    TMP DP  RH WIND       PRES   REMARKS
ABILENE        CLOUDY    78  73  84 S14G24    29.86F
AMARILLO       CLEAR     63  32  31 S8        29.89S
AUSTIN         CLOUDY    78  75  90 S10       29.92F
BROWNSVILLE    CLOUDY    81  79  94 SE16      29.87S
CORPUS CHRISTI CLOUDY    82  79  90 S9        29.91F
DALLAS FTW     MOCLDY    78  72  81 S12       29.91S
DEL RIO        CLOUDY    79  73  82 NW3       29.86S
EL PASO        CLEAR     75  20  12 W15       29.95F
HOUSTON INT    CLOUDY    78  75  90 S9        29.97F
LUBBOCK        PTCLDY    71  62  73 S13       29.88S
SAN ANGELO     CLOUDY    68  60  75 E9        29.92F THUNDER
SAN ANTONIO    LGT RAIN  79  75  87 S12G20    29.94F
WACO           CLOUDY    77  72  84 S12       29.94R
WICHITA FALLS  NOT AVBL
$$
...OTHER LOCATIONS IN NEW MEXICO...

CITY           SKY/WX    TMP DP  RH WIND       PRES   REMARKS
ALAMAGORDO     CLEAR     66  14  13 S3        29.98F
ALBUQUERQUE    CLEAR     55  14  19 E3        29.98S
CANNON AFB     CLEAR     59  33  37 W6        29.92S
CLOVIS         CLEAR     57  37  47 SW6       29.92R
HOLLOMAN AFB   CLEAR     65  15  14 SE6       29.96S
ROSWELL        CLEAR     64  19  17 W8        29.90F
RUIDOSO          N/A     57  12  17 SW16G22   30.10F
SANTA FE       CLEAR     51  21  30 NE5       30.00F
TRUTH OR CONSE CLEAR     63  16  16 SW7       29.98S
TUCUMCARI      CLEAR     56  26  31 S12       29.87S
$$

USA.gov is the U.S. government's official web portal to all federal, state and local government web resources and services.